Regional Weather Roundup
Issued by NWS

Home | Current Version | Previous Version | Text Only | Print | Product List | Glossary Off
Versions: 1 2 3 4 5 6 7 8 9 10 11 12 13 14 15 16 17 18 19 20 21 22 23 24 25 26 27 28 29 30 31 32 33 34 35 36 37 38 39 40 41 42 43 44 45 46 47 48 49 50

000
ASUS45 KABQ 021401
RWRNM
NEW MEXICO REGIONAL WEATHER ROUNDUP
NATIONAL WEATHER SERVICE ALBUQUERQUE NM
700 AM MST FRI DEC 02 2016

NOTE: "FAIR" MEANS FEW OR NO CLOUDS BELOW 12,000 FEET AGL WITH NO
       SIGNIFICANT WEATHER OR OBSTRUCTIONS TO VISION.

      THIS PRODUCT IS RELEASED AS TWO VERSIONS.  ONE VERSION NEAR
      THE TOP OF THE HOUR CONTAINING PRELIMINARY DATA FROM ALBUQUERQUE
      AND OTHER STATIONS.  A FINAL VERSION WITH ADDITIONAL DATA IS
      ISSUED ABOUT 10 MINUTES AFTER THE HOUR.

NMZ501-503-504-510>518-021500-
NORTHWEST PLATEAU/NORTHCENTRAL MOUNTAINS

CITY           SKY/WX    TMP DP  RH WIND       PRES   REMARKS
FARMINGTON     CLOUDY    24  18  77 E3        29.97R
LOS ALAMOS     CLOUDY    29  18  62 S3        30.00S
SANTA FE       CLOUDY    28  15  58 NE10      29.99S WCI  19
TAOS           CLOUDY    21   9  58 N5        30.01R WCI  15
ANGEL FIRE     CLOUDY    14  10  85 CALM      30.03S

$$
NMZ402-403-502-505>509-021500-
WESTCENTRAL MOUNTAINS/SOUTHWEST MOUNTAINS

CITY           SKY/WX    TMP DP  RH WIND       PRES   REMARKS
GALLUP         CLOUDY    21  16  81 CALM      29.94R
GRANTS         CLOUDY    24  21  88 NW6       29.97R WCI  17
SILVER CITY    FAIR      30  22  72 CALM      29.93R

$$
NMZ407-409-411-412-021500-
SOUTHERN DESERTS

CITY           SKY/WX    TMP DP  RH WIND       PRES   REMARKS
DEMING         FAIR      28  18  66 CALM      29.93R
LAS CRUCES     FAIR      32  21  65 NW6       29.94R WCI  26
HOLLOMAN AFB   FAIR      30  16  56 CALM      29.97R
T OR C         FAIR      31  16  54 NW3       29.93R

$$
NMZ519>523-021500-
CENTRAL VALLEYS/CENTRAL HIGHLANDS

CITY           SKY/WX    TMP DP  RH WIND       PRES   REMARKS
ALBUQUERQUE    CLOUDY    34  17  50 N9        29.97S WCI  27
DOUBLE EAGLE   MOCLDY    34  16  47 NW7       29.98R WCI  28
MORIARTY ARPT  CLOUDY    31  13  47 E5        30.03R WCI  26
CLINES CORNERS FAIR      25  11  55 E13       30.01R WCI  14
BELEN          CLOUDY    30  17  58 CALM      29.98R
SOCORRO        FAIR      31  15  52 N5        29.97R WCI  26

$$
NMZ524>526-539-540-021500-
SOUTHCENTRAL MOUNTAINS

CITY           SKY/WX    TMP DP  RH WIND       PRES   REMARKS
RUIDOSO        FAIR      27  14  59 S6        30.02R WCI  20

$$
NMZ527>531-021500-
NORTHEAST HIGHLANDS/NORTHEAST PLAINS

CITY           SKY/WX    TMP DP  RH WIND       PRES   REMARKS
LAS VEGAS      FAIR      20  13  74 E5        30.05R WCI  13
RATON          CLOUDY    22  12  65 NE6       30.07R WCI  14
CLAYTON        CLOUDY    30  18  60 N6        30.11R WCI  24

$$
NMZ532>537-021500-
EASTCENTRAL PLAINS

CITY           SKY/WX    TMP DP  RH WIND       PRES   REMARKS
TUCUMCARI      CLOUDY    31  17  56 N9        30.09R WCI  23
CANNON AFB     FAIR      30  16  56 E13       30.04R WCI  20
CLOVIS AIRPORT FAIR      27  16  63 NE13      30.05R WCI  16

$$
NMZ028-029-538-021500-
SOUTHEAST PLAINS

CITY           SKY/WX    TMP DP  RH WIND       PRES   REMARKS
ROSWELL        FAIR      36  15  42 N10       30.00R WCI  28
ARTESIA        FAIR      32  19  59 N6        30.02R WCI  26
CARLSBAD       FAIR      38  20  48 NW13      29.98R WCI  30
HOBBS          CLOUDY    41  39  93 NE8       29.99R


$$




USA.gov is the U.S. government's official web portal to all federal, state and local government web resources and services.